カタログに戻る

DELTA 1 DEB

LostUNKNOWN
NORAD 27624·DEBRIS·🇺🇸 United States

打ち上げ Jul 4, 1968 から Vandenberg Space Force Base

Loading…

次のパス (今後24時間)

TLE

古いSource: Space-Track

元期: May 12, 2025, 02:32 UTC

1 27624U 68055K   25132.10590444  .00005918  00000-0  79121-2 0  9990
2 27624 120.5260 262.3819 2033842 214.3072 130.8226 10.48936890183823

AllMySatでDELTA 1 DEBをリアルタイム追跡

Download on the App Store